Lamar, CO

3:35 AM MST on January 18, 2018 (GMT -0700)
Lamar Municipal

Weather History for KLAA - November, 2014

Change the Weather History Date:

Monday, November 3, 2014

  Actual Average Record
Temperature  
Mean Temperature 46 °F 45 °F  
Max Temperature 63 °F 63 °F 86 °F (2015)
Min Temperature 28 °F 28 °F -18 °F (1991)
Degree Days  
Heating Degree Days 19 20  
Month to date heating degree days 34 58  
Since 1 July heating degree days 360 525  
Cooling Degree Days 0 0  
Month to date cooling degree days 0 0  
Year to date cooling degree days 1322 1121  
Moisture  
Dew Point 36 °F    
Average Humidity 60    
Maximum Humidity 92    
Minimum Humidity 27    
Precipitation  
Precipitation 0.00 in 0.02 in 1.36 in (1946)
Month to date precipitation 0.02 0.07  
Year to date precipitation 11.56  
Sea Level Pressure  
Sea Level Pressure 29.91 in    
Wind  
Wind Speed 15 mph (WNW)    
Max Wind Speed 31 mph    
Max Gust Speed 37 mph    
Visibility 10 miles    
Events      
T = Trace of Precipitation, MM = Missing Value Source: NWS Daily Summary

Daily Weather History Graph

Daily Weather History Graph

Search for Another Location

Airport or City:

Trip Planner

Search our weather history database for the weather conditions in past years. The results will help you decide how hot, cold, wet, or windy it might be!

Date:

Astronomy

Nov. 03, 2014 Rise Set
Actual Time 6:18 AM MST 4:49 PM MST
Civil Twilight 5:51 AM MST 5:16 PM MST
Nautical Twilight 5:20 AM MST 5:47 PM MST
Astronomical Twilight 4:49 AM MST 6:18 PM MST
Moon 2:56 PM MST (11/3) 2:35 AM MST (11/3)
Length of Visible Light 11h 25m
Length of Day
10h 30m
Waxing Gibbous, 88% of the Moon is Illuminated
Nov 3
Waxing Gibbous
Nov 6
Full
Nov 14
Last Quarter
Nov 22
New
Nov 29
First Quarter

Hourly Weather History & Observations

Time (MST) Temp. Windchill Dew Point Humidity Pressure Visibility Wind Dir Wind Speed Gust Speed Precip Events Conditions
12:53 AM 57.9 °F - 46.0 °F 65% 29.67 in 10.0 mi SSW 17.3 mph 24.2 mph N/A   Clear
1:53 AM 55.9 °F - 46.0 °F 69% 29.67 in 10.0 mi SSW 19.6 mph - N/A   Clear
2:53 AM 55.9 °F - 46.0 °F 69% 29.66 in 10.0 mi SSW 20.7 mph 27.6 mph N/A   Clear
3:53 AM 57.0 °F - 46.9 °F 69% 29.65 in 10.0 mi SSW 20.7 mph 28.8 mph N/A   Clear
4:53 AM 57.0 °F - 46.9 °F 69% 29.67 in 10.0 mi SW 19.6 mph 26.5 mph N/A   Clear
5:53 AM 55.0 °F - 46.0 °F 72% 29.70 in 10.0 mi SW 12.7 mph - N/A   Clear
6:53 AM 52.0 °F - 46.0 °F 80% 29.75 in 10.0 mi WSW 6.9 mph - N/A   Clear
7:53 AM 55.9 °F - 44.1 °F 64% 29.78 in 10.0 mi WSW 12.7 mph - N/A   Clear
8:53 AM 62.1 °F - 28.0 °F 28% 29.79 in 10.0 mi West 25.3 mph 36.8 mph N/A   Clear
9:53 AM 63.0 °F - 28.0 °F 27% 29.81 in 10.0 mi WNW 18.4 mph 27.6 mph N/A   Clear
10:53 AM 62.1 °F - 36.0 °F 38% 29.85 in 10.0 mi NNW 15.0 mph 25.3 mph N/A   Clear
11:53 AM 61.0 °F - 36.0 °F 39% 29.86 in 10.0 mi North 21.9 mph 28.8 mph N/A   Clear
12:53 PM 60.1 °F - 34.0 °F 38% 29.87 in 10.0 mi North 15.0 mph 21.9 mph N/A   Clear
1:53 PM 60.1 °F - 34.0 °F 38% 29.90 in 10.0 mi NNE 12.7 mph - N/A   Clear
2:53 PM 60.1 °F - 33.1 °F 36% 29.93 in 10.0 mi North 8.1 mph - N/A   Clear
3:53 PM 57.0 °F - 34.0 °F 42% 29.97 in 10.0 mi NNE 18.4 mph 27.6 mph N/A   Scattered Clouds
4:53 PM 48.0 °F - 33.1 °F 56% 30.05 in 10.0 mi NNE 21.9 mph 32.2 mph N/A   Clear
5:53 PM 44.1 °F 36.2 °F 32.0 °F 63% 30.11 in 10.0 mi NNE 18.4 mph 25.3 mph N/A   Clear
6:53 PM 41.0 °F 33.5 °F 30.9 °F 67% 30.15 in 10.0 mi NNE 13.8 mph - N/A   Clear
7:53 PM 36.0 °F 29.6 °F 30.0 °F 79% 30.18 in 10.0 mi NE 8.1 mph - N/A   Clear
8:53 PM 32.0 °F 28.7 °F 28.0 °F 85% 30.18 in 10.0 mi NW 3.5 mph - N/A   Clear
9:53 PM 30.9 °F 26.2 °F 28.0 °F 89% 30.19 in 10.0 mi West 4.6 mph - N/A   Clear
10:53 PM 30.9 °F 23.5 °F 28.0 °F 89% 30.22 in 10.0 mi SSW 8.1 mph - N/A   Clear
11:53 PM 28.0 °F 21.7 °F 26.1 °F 92% 30.22 in 10.0 mi SSW 5.8 mph - N/A   Clear